Oscoda, MI

12:16 AM EDT on September 20, 2019 (GMT -0400)
Oscoda-Wurtsmith

Weather History for KOSC - August, 2019

Change the Weather History Date:

Friday, August 23, 2019

  Actual Average Record
Temperature  
Mean Temperature 60 °F -  
Max Temperature 70 °F 74 °F 89 °F (1998)
Min Temperature 49 °F 55 °F 48 °F (2006)
Degree Days  
Heating Degree Days 6    
Growing Degree Days 10 (Base 50)    
Moisture  
Dew Point 51 °F    
Average Humidity 78    
Maximum Humidity 100    
Minimum Humidity 48    
Precipitation  
Precipitation 0.00 in - - ()
Sea Level Pressure  
Sea Level Pressure 30.20 in    
Wind  
Wind Speed 5 mph (North)    
Max Wind Speed 14 mph    
Max Gust Speed 17 mph    
Visibility 10 miles    
Events      
Averages and records for this station are not official NWS values.
T = Trace of Precipitation, MM = Missing Value Source: NWS Daily Summary

Daily Weather History Graph

Daily Weather History Graph

Search for Another Location

Airport or City:

Astronomy

Aug. 23, 2019 Rise Set
Actual Time 6:45 AM EDT 8:26 PM EDT
Civil Twilight 6:14 AM EDT 8:56 PM EDT
Nautical Twilight 5:37 AM EDT 9:33 PM EDT
Astronomical Twilight 4:56 AM EDT 10:14 PM EDT
Moon 12:01 AM EDT (8/23) 2:39 PM EDT (8/23)
Length of Visible Light 14h 42m
Length of Day
13h 40m
Waning Gibbous, 50% of the Moon is Illuminated
Aug 23
Waning Gibbous
Aug 30
New
Sep 5
First Quarter
Sep 14
Full
Sep 21
Last Quarter

Hourly Weather History & Observations

Time (EDT) Temp. Dew Point Humidity Pressure Visibility Wind Dir Wind Speed Gust Speed Precip Events Conditions
12:15 AM 52.2 °F 50.0 °F 92% 30.10 in 10.0 mi NNW 3.5 mph - N/A   Clear
12:16 AM 52.2 °F 49.8 °F 92% 30.10 in 10.0 mi NW 3.5 mph - N/A   Clear
12:35 AM 49.5 °F 48.9 °F 98% 30.10 in 10.0 mi NW 4.6 mph - N/A   Clear
12:36 AM 49.5 °F 48.7 °F 97% 30.10 in 10.0 mi NW 3.5 mph - N/A   Clear
12:59 AM 50.4 °F 47.8 °F 91% 30.11 in 10.0 mi NNW 3.5 mph - N/A   Clear
1:17 AM 51.1 °F 47.7 °F 88% 30.12 in 10.0 mi NNW 4.6 mph - N/A   Clear
1:35 AM 50.4 °F 47.5 °F 90% 30.12 in 10.0 mi Calm Calm - N/A   Clear
1:55 AM 51.1 °F 47.3 °F 87% 30.12 in 10.0 mi Calm Calm - N/A   Clear
1:56 AM 51.1 °F 47.3 °F 87% 30.12 in 10.0 mi Calm Calm - N/A   Clear
2:15 AM 50.2 °F 47.1 °F 89% 30.12 in 10.0 mi Calm Calm - N/A   Clear
2:38 AM 49.5 °F 47.8 °F 94% 30.12 in 10.0 mi NW 4.6 mph - N/A   Clear
2:56 AM 49.5 °F 49.1 °F 99% 30.13 in 10.0 mi NW 3.5 mph - N/A   Clear
3:15 AM 50.0 °F 49.5 °F 98% 30.12 in 10.0 mi Calm Calm - N/A   Clear
3:35 AM 50.2 °F 50.0 °F 99% 30.13 in 10.0 mi Calm Calm - N/A   Clear
3:36 AM 50.2 °F 50.0 °F 99% 30.13 in 10.0 mi NW 3.5 mph - N/A   Clear
3:59 AM 50.9 °F 50.9 °F 100% 30.13 in 10.0 mi NW 3.5 mph - N/A   Clear
4:17 AM 50.7 °F 50.7 °F 100% 30.13 in 10.0 mi Calm Calm - N/A   Clear
4:35 AM 50.5 °F 50.5 °F 100% 30.13 in 10.0 mi Calm Calm - N/A   Clear
4:55 AM 51.3 °F 51.3 °F 100% 30.14 in 10.0 mi Calm Calm - N/A   Clear
4:56 AM 51.3 °F 51.3 °F 100% 30.14 in 10.0 mi Calm Calm - N/A   Clear
5:15 AM 51.1 °F 51.1 °F 100% 30.14 in 10.0 mi Calm Calm - N/A   Clear
5:38 AM 51.1 °F 51.1 °F 100% 30.15 in 10.0 mi Calm Calm - N/A   Clear
5:56 AM 50.9 °F 50.9 °F 100% 30.15 in 10.0 mi Calm Calm - N/A   Clear
6:15 AM 50.7 °F 50.7 °F 100% 30.16 in 10.0 mi NW 3.5 mph - N/A   Clear
6:16 AM 50.9 °F 50.9 °F 100% 30.16 in 10.0 mi Calm Calm - N/A   Clear
6:35 AM 50.5 °F 50.5 °F 100% 30.17 in 10.0 mi Calm Calm - N/A   Clear
6:59 AM 50.5 °F 50.5 °F 100% 30.17 in 10.0 mi NW 3.5 mph - N/A   Clear
7:17 AM 50.9 °F 50.9 °F 100% 30.17 in 10.0 mi NW 4.6 mph - N/A   Clear
7:35 AM 51.8 °F 51.8 °F 100% 30.18 in 10.0 mi Calm Calm - N/A   Clear
7:36 AM 51.8 °F 51.8 °F 100% 30.18 in 10.0 mi Calm Calm - N/A   Clear
7:55 AM 53.1 °F 53.1 °F 100% 30.18 in 10.0 mi NNW 4.6 mph - N/A   Clear
8:15 AM 54.9 °F 54.9 °F 100% 30.18 in 10.0 mi NNW 5.8 mph - N/A   Clear
8:20 AM 55.2 °F 55.2 °F 100% 30.18 in 10.0 mi NNW 6.9 mph - N/A   Clear
8:38 AM 57.2 °F 55.4 °F 94% 30.18 in 10.0 mi North 6.9 mph - N/A   Clear
8:56 AM 59.0 °F 55.6 °F 88% 30.19 in 10.0 mi NNW 6.9 mph - N/A   Clear
9:15 AM 61.0 °F 55.6 °F 82% 30.19 in 10.0 mi North 5.8 mph - N/A   Clear
9:35 AM 63.9 °F 56.3 °F 76% 30.20 in 10.0 mi North 6.9 mph - N/A   Clear
9:36 AM 64.0 °F 56.3 °F 76% 30.20 in 10.0 mi North 6.9 mph - N/A   Clear
9:59 AM 65.8 °F 56.3 °F 71% 30.20 in 10.0 mi North 8.1 mph - N/A   Clear
10:35 AM 65.5 °F 54.7 °F 68% 30.21 in 10.0 mi North 6.9 mph - N/A   Clear
10:56 AM 67.1 °F 53.6 °F 62% 30.21 in 10.0 mi North 6.9 mph - N/A   Mostly Cloudy
11:15 AM 69.4 °F 52.7 °F 55% 30.21 in 10.0 mi NE 6.9 mph - N/A   Overcast
11:37 AM 70.3 °F 53.2 °F 55% 30.22 in 10.0 mi ENE 12.7 mph 17.3 mph N/A   Mostly Cloudy
11:56 AM 68.2 °F 50.5 °F 53% 30.23 in 10.0 mi NE 10.4 mph - N/A   Mostly Cloudy
12:15 PM 68.0 °F 51.3 °F 55% 30.23 in 10.0 mi ENE 12.7 mph - N/A   Overcast
12:16 PM 68.0 °F 51.1 °F 55% 30.23 in 10.0 mi ENE 12.7 mph - N/A   Overcast
12:35 PM 70.3 °F 52.7 °F 53% 30.23 in 10.0 mi NE 12.7 mph 17.3 mph N/A   Overcast
12:59 PM 70.2 °F 53.4 °F 55% 30.23 in 10.0 mi NE 13.8 mph 17.3 mph N/A   Overcast
1:17 PM 68.0 °F 51.4 °F 55% 30.23 in 10.0 mi NNE 9.2 mph - N/A   Overcast
1:36 PM 67.5 °F 52.2 °F 58% 30.23 in 10.0 mi NE 8.1 mph - N/A   Overcast
1:55 PM 68.7 °F 52.7 °F 57% 30.23 in 10.0 mi NE 9.2 mph - N/A   Overcast
2:15 PM 68.9 °F 52.2 °F 55% 30.23 in 10.0 mi ENE 10.4 mph - N/A   Overcast
2:20 PM 68.4 °F 52.3 °F 57% 30.23 in 10.0 mi NE 11.5 mph - N/A   Overcast
2:38 PM 68.7 °F 53.1 °F 57% 30.23 in 10.0 mi NE 11.5 mph - N/A   Overcast
2:56 PM 69.3 °F 52.9 °F 56% 30.23 in 10.0 mi NE 11.5 mph - N/A   Overcast
3:15 PM 68.5 °F 52.2 °F 56% 30.23 in 10.0 mi ENE 12.7 mph - N/A   Mostly Cloudy
3:35 PM 69.4 °F 50.9 °F 52% 30.23 in 10.0 mi ENE 12.7 mph - N/A   Mostly Cloudy
3:59 PM 66.4 °F 49.3 °F 54% 30.23 in 10.0 mi NE 11.5 mph - N/A   Mostly Cloudy
4:17 PM 66.4 °F 50.2 °F 56% 30.23 in 10.0 mi NE 9.2 mph - N/A   Overcast
4:36 PM 68.9 °F 49.3 °F 50% 30.23 in 10.0 mi NE 10.4 mph - N/A   Overcast
4:55 PM 69.4 °F 48.7 °F 48% 30.23 in 10.0 mi ENE 6.9 mph - N/A   Mostly Cloudy
5:15 PM 69.3 °F 49.6 °F 50% 30.23 in 10.0 mi East 8.1 mph - N/A   Scattered Clouds
5:38 PM 68.5 °F 49.5 °F 50% 30.23 in 10.0 mi NE 10.4 mph - N/A   Clear
5:55 PM 68.0 °F 49.8 °F 52% 30.23 in 10.0 mi ENE 9.2 mph - N/A   Mostly Cloudy
6:15 PM 68.4 °F 50.7 °F 53% 30.23 in 10.0 mi NE 10.4 mph - N/A   Mostly Cloudy
6:35 PM 67.3 °F 50.5 °F 55% 30.23 in 10.0 mi ENE 9.2 mph - N/A   Scattered Clouds
6:59 PM 66.2 °F 50.7 °F 57% 30.23 in 10.0 mi ENE 8.1 mph - N/A   Clear
7:17 PM 66.2 °F 50.4 °F 57% 30.23 in 10.0 mi NE 6.9 mph - N/A   Clear
7:35 PM 65.5 °F 50.4 °F 58% 30.23 in 10.0 mi NE 8.1 mph - N/A   Clear
7:55 PM 64.6 °F 51.1 °F 62% 30.23 in 10.0 mi NNE 5.8 mph - N/A   Clear
8:15 PM 63.1 °F 50.4 °F 63% 30.23 in 10.0 mi NNE 6.9 mph - N/A   Clear
8:20 PM 63.0 °F 50.2 °F 63% 30.23 in 10.0 mi NNE 5.8 mph - N/A   Clear
8:38 PM 61.7 °F 50.2 °F 66% 30.23 in 10.0 mi NE 4.6 mph - N/A   Clear
8:56 PM 59.5 °F 50.9 °F 73% 30.24 in 10.0 mi Calm Calm - N/A   Clear
9:15 PM 57.0 °F 50.0 °F 77% 30.24 in 10.0 mi NNW 3.5 mph - N/A   Clear
9:16 PM 56.8 °F 50.0 °F 78% 30.24 in 10.0 mi NNW 3.5 mph - N/A   Clear
9:35 PM 56.1 °F 49.5 °F 78% 30.25 in 10.0 mi NW 3.5 mph - N/A   Clear
9:36 PM 55.9 °F 49.5 °F 79% 30.25 in 10.0 mi NW 3.5 mph - N/A   Clear
9:59 PM 53.6 °F 48.7 °F 84% 30.25 in 10.0 mi NNW 3.5 mph - N/A   Clear
10:17 PM 53.1 °F 48.6 °F 85% 30.26 in 10.0 mi NNW 4.6 mph - N/A   Clear
10:35 PM 54.0 °F 49.1 °F 84% 30.26 in 10.0 mi NNW 3.5 mph - N/A   Clear
10:36 PM 53.8 °F 49.1 °F 84% 30.26 in 10.0 mi NNW 4.6 mph - N/A   Clear
10:55 PM 53.6 °F 49.1 °F 85% 30.26 in 10.0 mi NW 3.5 mph - N/A   Clear
10:56 PM 53.6 °F 48.9 °F 84% 30.26 in 10.0 mi NW 3.5 mph - N/A   Clear
11:15 PM 53.6 °F 49.1 °F 85% 30.27 in 10.0 mi Calm Calm - N/A   Clear
11:38 PM 52.9 °F 48.7 °F 86% 30.27 in 10.0 mi NNW 3.5 mph - N/A   Clear
11:56 PM 52.5 °F 48.4 °F 86% 30.27 in 10.0 mi NNW 5.8 mph - N/A   Clear